STARLINK-1063 (44768 NORAD) Tracking and Keplerian Element Data

This shows tracking and keplerian element data for the satellite.

Feedback or suggestion? Click here.




ElementValue
Catalog44768
NameSTARLINK-1063
Epoch Orbit161
Epoch Day93.91667824
Epoch Year2020
RAAN233.626
Inclination53.0014
Eccentricity0.000165
Argument of Perigee91.2381
Mean Anonmoly201.3826
Mean Motion15.05589592
Decay Rate5.309E-05
L11 44768U 19074BH 20093.91667824 .00005309 00000-0 38316-3 0 9998
L22 44768 53.0014 233.6260 0001650 91.2381 201.3826 15.05589592 1611

Live tracking and technical data element details for STARLINK-1063 (NORAD 44768). STARLINK-1063 can be tracked NOW for your location showing map with azimuth and elevation plus other details from your city location.

Track the satellite on the map from your city or location and see movement details for azimuth, elevation, latitude, longitude, range, height, and movement on the map or in text.







IsCatalogInMostPopularTable: catalog: 44768, numindb: 41
Update: records affected: 1



GetName: 44768 STARLINK-1063

Hit Count: updated at: Fri, 10 Apr 2020 19:36:52 GMT